CZ-3B DEB, 42464

Orbit data source: Space-Track

CZ-3B DEB, 42464 is space debris in HEO originally from a launch on Sat, 04 Sep 2010 UTC launched from the Xichang Space Center, China (XSC). Debris objects in space refer to the collection of defunct objects orbiting the Earth. Examples of debris include non-operational satellites, rocket bodies, and fragments generated from explosions, collisions, or faulty payload assembly.

Loading next visibility...
Identifier
42464, 2010-042AF
Orbit
HEO
Country
Flag of CNCN / PRC
Related business
Manufacturer
CALT
Mission
Spacecraft
Bus & Motor
Unknown
Mass
Unknown
Launch date (UTC)
2010-09-04 (15 years ago)
Launch vehicle
Unknown
Launch site
Xichang Space Center, China (XSC)
Object type
Payload
Rocket body
Debris
Shape & HBR
Unknown shape, 0.3 m
Radar Cross Section
Medium (>0.1 m² and <1 m²)

Expand to show TLE details & history
Last TLE update: 4 months ago

TLE from 4 months ago
0 CZ-3B DEB
1 42464U 10042AF  25174.61699385 -.00000258  00000-0  00000-0 0  9999
2 42464  25.4774 359.1516 7359238 254.3988  20.0863  1.82364632 75980
Epoch: 2025-06-23T14:48Z
TLE epoch observation values (Epoch: 2025-06-23T14:48:28.268Z)
Latitude
0.00002°
Longitude
-134.99704°
Altitude
9,727.397 km
Speed
5.951 km/s
True Right ascension
23h 56m 34s
True Declination
0° 00' 00"
Sunlit
Object was in daylight at epoch
Visualization orbit readout
Latitude
Unknown
Longitude
Unknown
Altitude
Unknown
Speed
Unknown
Apparent Right ascension
Unknown
Apparent Declination
Unknown
Sunlit
N/A
Visualization observer readout
Local Sidereal Time
17:42:35
Azimuth
Unknown
Elevation
Unknown
Doppler factor
Unknown
Orbital elements
Apogee altitude
42,753.505 km
Perigee altitude
1,095.98 km
Semi-major axis
28,302.88 km
Eccentricity
0.73592
Inclination
25.4774°
RAAN
359.1516°
Arg. of periapsis
254.3988°
True anomaly
105.54869°
Mean anomaly
20.0863°
Eccentric anomaly
54.34917°
Mean motion
0.45582 °/min
Orbital period
789.78 mins
BSTAR
0
Loading maneuver chart data...
Computing Atmospheric mass density...
Loading historical data...
Loading historical data...
Loading historical data...
Loading historical data...
Loading historical data...
Loading historical data...
Loading historical data...

Documentation

Showing up to 5 results
|